EW9837 Weather Reports


Display with metric or nautical units.
time (UTC)temp
F
wind
direction
speed
MPH
gust
MPH
rain 1hr
in
rain 24hr
in
rain mn
in
humidity
%
barometer
mb
20260831194536 74 316 5.0 12.0 0.00 0.00 0.00 44 1014.6
20260831193031 73 311 5.0 11.0 0.00 0.00 0.00 46 1014.8
20260831191536 72 321 4.0 11.0 0.00 0.00 0.00 48 1015.1
20260831190034 71 319 5.0 12.0 0.00 0.00 0.00 49 1015.4
20260831184536 70 324 6.0 11.0 0.00 0.00 0.00 50 1015.6
20260831183036 70 332 5.0 11.0 0.00 0.00 0.00 53 1015.8
20260831181536 69 335 4.0 7.0 0.00 0.00 0.00 55 1016.0
20260831180034 68 332 4.0 7.0 0.00 0.00 0.00 56 1016.2
20260831173036 66 340 3.0 7.0 0.00 0.00 0.00 59 1016.5
20260831171534 66 357 3.0 6.0 0.00 0.00 0.00 61 1016.7
20260831170033 65 348 2.0 5.0 0.00 0.00 0.00 62 1016.7
20260831164535 65 8 3.0 5.0 0.00 0.00 0.00 66 1017.0
20260831163030 65 15 1.0 5.0 0.00 0.00 0.00 75 1017.1
20260831161532 63 22 0.0 0.0 0.00 0.00 0.00 83 1017.2
20260831160033 60 94 0.0 1.0 0.00 0.00 0.00 90 1017.3
20260831154537 57 157 0.0 0.0 0.00 0.00 0.00 96 1017.2
20260831153031 56 157 0.0 0.0 0.00 0.00 0.00 97 1017.3
20260831151535 54 157 0.0 0.0 0.00 0.00 0.00 97 1017.2
20260831150105 50 157 0.0 1.0 0.00 0.00 0.00 97 1017.1
20260831141534 41 166 2.0 3.0 0.00 0.00 0.00 96 1016.7
20260831140036 41 180 2.0 3.0 0.00 0.00 0.00 96 1016.5
20260831134534 41 202 2.0 3.0 0.00 0.00 0.00 96 1016.4
20260831133144 41 180 1.0 4.0 0.00 0.00 0.00 96 1016.5
20260831131644 41 173 3.0 4.0 0.00 0.00 0.00 96 1016.5
20260831124536 41 180 3.0 4.0 0.00 0.00 0.00 96 1016.5
20260831121534 41 171 3.0 4.0 0.00 0.00 0.00 96 1016.4
20260831120030 42 180 3.0 4.0 0.00 0.00 0.00 96 1016.5
20260831114536 42 169 3.0 4.0 0.00 0.00 0.00 95 1016.6
20260831113035 42 157 3.0 4.0 0.00 0.00 0.00 95 1016.6
20260831111536 42 168 3.0 4.0 0.00 0.00 0.00 95 1016.6
20260831110036 42 180 3.0 4.0 0.00 0.00 0.00 95 1016.6
20260831104536 43 180 3.0 4.0 0.00 0.00 0.00 95 1016.7
20260831100035 43 170 3.0 5.0 0.00 0.00 0.00 95 1016.9
20260831094537 43 180 3.0 4.0 0.00 0.00 0.00 95 1017.1
20260831091537 44 180 1.0 3.0 0.00 0.00 0.00 94 1017.3
20260831090033 44 180 2.0 3.0 0.00 0.00 0.00 94 1017.4
20260831084533 44 180 2.0 3.0 0.00 0.00 0.00 94 1017.4
20260831083038 45 180 2.0 4.0 0.00 0.00 0.00 94 1017.6
20260831080140 45 172 3.0 5.0 0.00 0.00 0.00 93 1017.8
20260831074608 45 180 3.0 4.0 0.00 0.00 0.00 93 1017.9
20260831073107 46 180 1.0 3.0 0.00 0.00 0.00 93 1017.9
20260831071536 46 180 0.0 2.0 0.00 0.00 0.00 92 1018.0
20260831070035 47 180 2.0 3.0 0.00 0.00 0.00 92 1018.1
20260831064536 47 180 2.0 3.0 0.00 0.00 0.00 91 1018.1
20260831060037 48 171 2.0 4.0 0.00 0.00 0.00 89 1018.4
20260831054535 49 162 2.0 4.0 0.00 0.00 0.00 89 1018.6
20260831053036 50 89 0.0 1.0 0.00 0.00 0.00 88 1018.7
20260831051535 50 180 1.0 3.0 0.00 0.00 0.00 88 1018.8
20260831050035 51 172 3.0 5.0 0.00 0.00 0.00 88 1018.9
20260831044530 50 169 4.0 6.0 0.00 0.00 0.00 87 1018.9
20260831041541 51 158 3.0 4.0 0.00 0.00 0.00 85 1019.0
20260831040035 52 180 4.0 6.0 0.00 0.00 0.00 83 1018.9
20260831034608 53 177 3.0 4.0 0.00 0.00 0.00 80 1018.8
20260831033035 55 169 2.0 5.0 0.00 0.00 0.00 77 1018.7
20260831031532 56 235 2.0 5.0 0.00 0.00 0.00 73 1018.7
20260831030034 59 5 2.0 4.0 0.00 0.00 0.00 67 1018.7
20260831024536 61 13 3.0 5.0 0.00 0.00 0.00 59 1018.7
20260831023031 63 360 4.0 6.0 0.00 0.00 0.00 55 1018.7
20260831021536 64 355 4.0 7.0 0.00 0.00 0.00 52 1018.8
20260831020037 66 353 4.0 8.0 0.00 0.00 0.00 49 1018.7
20260831014534 67 4 6.0 11.0 0.00 0.00 0.00 47 1018.7
20260831013034 68 353 7.0 14.0 0.00 0.00 0.00 45 1018.7
20260831011535 69 341 6.0 12.0 0.00 0.00 0.00 44 1018.8
20260831010035 70 343 7.0 12.0 0.00 0.00 0.00 43 1018.8
20260831004536 70 336 7.0 14.0 0.00 0.00 0.00 42 1018.8
20260831003035 71 334 7.0 15.0 0.00 0.00 0.00 41 1018.7
20260831001534 71 341 8.0 16.0 0.00 0.00 0.00 40 1018.8
20260831000106 72 331 7.0 15.0 0.00 0.00 0.00 40 1018.7
20260830234536 72 334 6.0 12.0 0.00 0.00 0.00 40 1018.7
20260830233035 73 337 6.0 12.0 0.00 0.00 0.00 41 1018.8
20260830231643 73 328 6.0 14.0 0.00 0.00 0.00 41 1018.8
20260830230034 73 331 5.0 13.0 0.00 0.00 0.00 41 1019.0
20260830224536 73 318 5.0 12.0 0.00 0.00 0.00 41 1019.1
20260830223035 73 319 6.0 13.0 0.00 0.00 0.00 42 1019.3
20260830221535 72 324 6.0 12.0 0.00 0.00 0.00 42 1019.6
20260830214605 71 338 9.0 17.0 0.00 0.00 0.00 43 1019.9
20260830213105 71 339 7.0 14.0 0.00 0.00 0.00 44 1020.1
20260830210144 70 323 5.0 12.0 0.00 0.00 0.00 46 1020.1
20260830204537 68 2 6.0 13.0 0.00 0.00 0.00 50 1020.3
20260830201536 69 38 6.0 11.0 0.00 0.00 0.00 50 1020.7
20260830200036 69 45 5.0 9.0 0.00 0.00 0.00 49 1020.8